This demonstration page uses our WeatherBlox Daily Observations layout. Learn more.

Left ArrowRight Arrow

38.89511, -77.03637

Hourly Observations for May 14, 2018

Temp ( °F °C ) Dew Point ( °F °C ) Humidity (%) Winds ( mph kmh ) Pressure ( in mb ) Visibility ( mi km ) Precip ( " mm )
12:14 am 00:14 Cloudy 63 17.2 59 15 87 87 E 7 11 30.03 1017 10 16 0.00 0.00
12:52 am 00:52 Cloudy 63 17.2 59 15 87 87 E 6 9 30.03 1017 10 16 0.00 0.00
1:43 am 01:43 Cloudy 63 17.2 59 15 87 87 E 5 7 30.00 1016 10 16 0.00 0.00
1:52 am 01:52 Cloudy 62 16.7 59 15 90 90 E 5 7 30.00 1016 10 16 0.00 0.00
2:52 am 02:52 Cloudy 62 16.7 59 15 90 90 Calm 29.99 1016 9 14 0.00 0.00
3:52 am 03:52 Cloudy 62 16.7 59 15 90 90 E 5 7 29.98 1015 7 11 0.00 0.00
4:41 am 04:41 Cloudy with Mist and Fog 62 16.7 59 15 90 90 E 5 7 29.97 1015 4 6 0.00 0.00
4:52 am 04:52 Cloudy with Mist and Fog 62 16.7 59 15 90 90 E 3 6 29.98 1015 4 6 0.00 0.00
5:12 am 05:12 Cloudy 62 16.7 59 15 90 90 E 3 6 29.97 1015 9 14 0.00 0.00
5:52 am 05:52 Cloudy with Mist and Fog 63 17.2 59 15 87 87 Calm 29.99 1016 3 5 0.00 0.00
6:24 am 06:24 Cloudy with Mist and Fog 62 16.7 59 15 90 90 E 3 6 30.00 1016 3 4 0.00 0.00
6:41 am 06:41 Cloudy with Mist and Fog 62 16.7 60 15.6 93 93 ESE 5 7 30.00 1016 2 3 0.00 0.00
6:52 am 06:52 Cloudy with Mist and Fog 62 16.7 60 15.6 93 93 SE 5 7 30.01 1016 1 2 0.00 0.00
7:19 am 07:19 Cloudy with Mist and Fog 62 16.7 60 15.6 93 93 SE 5 7 30.03 1017 2 3 0.00 0.00
7:42 am 07:42 Cloudy with Mist and Fog 63 17.2 60 15.6 90 90 Calm 30.03 1017 3 5 0.00 0.00
7:52 am 07:52 Cloudy with Mist and Fog 63 17.2 60 15.6 90 90 E 3 6 30.03 1017 3 5 0.00 0.00
8:52 am 08:52 Cloudy with Mist and Fog 64 17.8 60 15.6 87 87 SE 3 6 30.04 1017 4 6 0.00 0.00
9:52 am 09:52 Cloudy 65 18.3 60 15.6 84 84 SE 3 6 30.03 1017 7 11 0.00 0.00
10:52 am 10:52 Cloudy 67 19.4 61 16.1 81 81 Calm 30.03 1017 7 11 0.00 0.00
11:52 am 11:52 Cloudy 68 20 62 16.7 81 81 Calm 30.03 1017 7 11 0.00 0.00
12:19 pm 12:19 Mostly Cloudy 70 21.1 62 16.7 76 76 ESE 3 6 30.03 1017 7 11 0.00 0.00
12:23 pm 12:23 Mostly Cloudy 70 21.1 62 16.7 76 76 ESE 3 6 30.03 1017 7 11 0.00 0.00
12:52 pm 12:52 Cloudy 71 21.7 64 17.8 79 79 SSE 7 11 30.03 1017 10 16 0.00 0.00
1:52 pm 13:52 Mostly Cloudy 73 22.8 64 17.8 74 74 S 5 7 30.02 1017 10 16 0.00 0.00
2:52 pm 14:52 Mostly Cloudy 76 24.4 65 18.3 69 69 S 7 11 29.98 1015 10 16 0.00 0.00
3:52 pm 15:52 Partly Cloudy 79 26.1 68 20 69 69 SSW 8 13 29.96 1015 10 16 0.00 0.00
4:52 pm 16:52 Mostly Cloudy 80 26.7 68 20 67 67 S 3 6 29.95 1014 10 16 0.00 0.00
5:52 pm 17:52 Mostly Cloudy 79 26.1 69 20.6 72 72 S 5 7 29.94 1014 10 16 0.00 0.00
6:46 pm 18:46 Mostly Cloudy with Thunderstorms 77 25 70 21 79 79 VRB 7 11 29.94 1014 10 16 0.00 0.00
6:52 pm 18:52 Windy with Storms Likely 74 23.3 63 17.2 69 69 WNW 28 44 29.96 1015 10 16 0.00 0.03
7:00 pm 19:00 Cloudy with Strong Thunderstorms 69 20.6 64 17.8 84 84 WNW 17 28 30.00 1016 2 2 0.04 1.02
7:05 pm 19:05 Cloudy with Strong Thunderstorms 68 20 64 17.8 87 87 W 13 20 30.00 1016 1 1 0.28 7.11
7:08 pm 19:08 Cloudy with Strong Thunderstorms 68 20 65 18.3 90 90 W 12 19 30.00 1016 1 1 0.47 11.94
7:13 pm 19:13 Cloudy with Strong Thunderstorms 68 20 64 17.8 87 87 NW 21 33 30.00 1016 1 1 0.81 20.57
7:18 pm 19:18 Mostly Cloudy with Strong Thunderstorms 67 19.4 64 17.8 91 91 NNW 17 28 30.00 1016 1 1 1.02 25.91
7:20 pm 19:20 Cloudy with Strong Thunderstorms 67 19.4 63 17.2 87 87 NNW 20 31 30.00 1016 1 2 1.08 27.43
7:22 pm 19:22 Cloudy with Strong Thunderstorms 67 19.4 63 17.2 87 87 NNW 25 41 30.00 1016 1 2 1.14 28.96
7:30 pm 19:30 Cloudy with Strong Thunderstorms 68 20 63 17.2 84 84 NNW 25 41 29.97 1015 2 3 1.22 30.99
7:33 pm 19:33 Cloudy with Strong Thunderstorms 68 20 63 17.2 84 84 NNW 22 35 29.97 1015 3 4 1.27 32.26
7:37 pm 19:37 Cloudy with Strong Thunderstorms 69 20.6 63 17.2 81 81 NNW 16 26 29.97 1015 3 5 1.31 33.27
7:52 pm 19:52 Cloudy with Thunderstorms 69 20.6 64 17.8 84 84 NNW 10 17 29.98 1015 9 14 1.37 34.80
8:42 pm 20:42 Mostly Cloudy with Thunderstorms 68 20 64 17.8 87 87 SE 12 19 29.94 1014 10 16 0.08 2.03
8:52 pm 20:52 Cloudy with Thunderstorms 68 20 64 17.8 87 87 SSE 10 17 29.93 1014 10 16 0.09 2.29
9:52 pm 21:52 Mostly Cloudy with Thunderstorms 68 20 64 17.8 87 87 WSW 14 22 29.95 1014 10 16 0.03 0.76
10:06 pm 22:06 Mostly Cloudy with Light Rain 68 20 64 17.8 87 87 W 9 15 29.97 1015 10 16 0.00 0.03
10:52 pm 22:52 Cloudy 68 20 64 17.8 87 87 WSW 10 17 29.99 1016 10 16 0.00 0.03
11:52 pm 23:52 Cloudy 68 20 63 17.2 84 84 SW 9 15 30.00 1016 10 16 0.00 0.00

Powered by AerisWeather